Погода в Синкериме

Индия     15°32′45″N   73°47′08″E
темп.,
°C
ветер,
м/с
пор.,
м/с
влажн.,
%
обл.,
%
осадки,
мм/ч
давл.,
гПа
погр.,
м
2 декабря, чт
чт223:30+26ююв358319 4.8 1010258
02:30+25в338694 2.7 1010126
05:30+25вюв448588 4.5 1010197
08:30+26юв458097 0.0 1012417
11:30+28ююв67737 0.0 1012814
14:30+28ю787412 0.0 1008722
17:30+27ю56796 1.2 1009538
20:30+27ююз34810 2.5 1012359
3 декабря, пт
пт323:30+26ю22827 5.7 1012240
02:30+25юв22837 1.8 1010253
05:30+25вюв32861 1.8 1010264
08:30+25вюв22845 0.9 1013214
11:30+27ююз227416 1.0 1012447
14:30+27зюз33728 0.1 1009639
17:30+27сз34745 0.1 1010575
20:30+27ссз337650 0.0 1013614
4 декабря, сб
сб423:30+26с337988 0.0 1012471
02:30+25св2285100 0.0 1010240
05:30+24св228612 0.0 1011168
08:30+25всв22825 0.1 1013214
11:30+27зсз32757 0.1 1013501
14:30+27зсз5477100 0.0 1010538
17:30+27зсз55754 0.0 1011557
20:30+26сз44773 0.0 1013593
5 декабря, вс
вс523:30+25с338215 0.0 1013383
02:30+24ссв338672 0.1 1011226
05:30+24ссв338762 0.1 1012203
08:30+25ссв33825 0.0 1014268
11:30+27зсз227110 0.0 1013551
14:30+26зсз547662 0.0 1011524
17:30+26сз447524 0.0 1010410
20:30+26ссз33761 0.0 1013483
6 декабря, пн
пн623:30+25с33812 0.0 1013446
02:30+23ссв33896 0.0 1010245
05:30+23всв22878 0.0 1011182
08:30+23ссв228274 0.0 1013228
11:30+26зсз227210 0.0 1013437
14:30+26з4372100 0.0 1010388
17:30+26сз44694 0.0 1010448
20:30+26ссз33700 0.0 1012430